[[{"header":{"parameterUnit":"m.s-1","parameterCategory":1,"la1":30.2991,"la2":30.254,"lo1":-89.0895,"lo2":-89.0444,"dy":0.0017,"dx":0.0017,"nx":28,"ny":28,"refTime":"2024-12-23T09:00:00:Z","depth":0,"parameterNumber":2,"parameterNumberName":"U-component_of_WINDS"},"data":[0,0,0,0,0,0,0,0,0,0,0,0,0,0,0,0,0,0,0,0,0,0,0,0,0,0,0,0,0,0,0,0,0,0,0,0,0,0,0,0,0,0,0,0,0,0,0,0,0,0,0,0,0,0,0,0,0,0,-4.571,-4.5711,0,-4.5826,-4.5828,-4.5829,-4.5733,-4.5729,-4.5725,-4.5721,-4.5843,-4.585,-4.5857,0,0,0,0,0,0,0,0,0,0,0,0,0,-4.5406,-4.5412,-4.5709,-4.5711,-4.5712,-4.5826,-4.5828,-4.5829,-4.5733,-4.5729,-4.5724,-4.5719,-4.5841,-4.5849,-4.5858,0,0,0,0,0,0,0,0,0,0,0,0,0,-4.5532,-4.5414,-4.5709,-4.5678,-4.5677,-4.5826,-4.5828,-4.583,-4.5735,-4.5728,-4.5722,-4.5717,-4.5838,-4.5849,-4.5859,-4.6046,0,0,-4.5891,-4.5896,0,0,0,0,0,0,0,0,-4.5525,-4.5543,-4.5681,-4.5681,-4.5679,-4.5759,-4.5766,-4.5902,-4.5736,-4.5713,-4.5721,-4.5714,-4.582,-4.5832,-4.5867,-4.6052,-4.6057,-4.5892,-4.5899,-4.5903,-4.5906,0,0,0,0,0,0,0,-4.5516,-4.5538,-4.5756,-4.5683,-4.5682,-4.5659,-4.567,-4.5791,-4.5799,-4.5714,-4.5707,-4.5722,-4.5819,-4.5857,-4.587,-4.6059,-4.5892,-4.5901,-4.5908,-4.5912,-4.6404,-4.641,0,0,0,0,0,0,-4.551,-4.5531,-4.5752,-4.5759,-4.5585,-4.567,-4.5682,-4.5739,-4.5798,-4.5801,-4.5728,-4.5718,-4.5842,-4.5857,-4.5874,-4.6097,-4.5903,-4.5913,-4.5919,-4.6397,-4.6405,-4.6412,0,0,0,0,0,0,-4.5504,-4.5531,-4.5747,-4.5643,-4.5669,-4.5681,-4.5746,-4.5745,-4.5783,-4.5808,-4.5809,-4.5766,-4.5838,-4.5859,-4.6004,-4.61,-4.5918,-4.5927,-4.6389,-4.64,-4.6409,-4.6546,0,0,0,0,0,0,-4.5496,-4.5529,-4.56,-4.5646,-4.5675,-4.5875,-4.5752,-4.5752,-4.5802,-4.579,-4.5844,-4.5847,-4.5835,-4.5989,-4.6014,-4.6111,-4.5936,-4.6381,-4.6394,-4.6406,-4.6533,-4.656,-4.6582,0,0,0,0,0,-4.5485,-4.5634,-4.5604,-4.5631,-4.5763,-4.5881,-4.5898,-4.588,-4.581,-4.5881,-4.5897,-4.5845,-4.6085,-4.6004,-4.6033,-4.6134,-4.6374,-4.639,-4.6405,-4.6522,-4.6554,-4.6582,0,0,0,0,0,0,-4.56,-4.564,-4.5607,-4.5774,-4.5825,-4.5865,-4.5954,-4.5915,-4.5988,-4.5974,-4.5949,-4.5962,-4.6116,-4.6139,-4.6048,-4.6319,-4.6219,-4.624,-4.6298,-4.6329,-4.6353,-4.6345,-4.5944,0,0,0,0,0,-4.5645,-4.5736,-4.5766,-4.5911,-4.5938,-4.5942,-4.5993,-4.5975,-4.6027,-4.6048,-4.6074,-4.6127,-4.6215,-4.6273,-4.6354,-4.6535,-4.6547,-4.6619,-4.6644,-4.6664,-4.6683,-4.6782,-4.6815,-4.6462,-4.6462,-4.6462,0,0,-4.5739,-4.5771,-4.5831,-4.5935,-4.5972,-4.6069,-4.5961,-4.6067,-4.6139,-4.6064,-4.6203,-4.6225,-4.6282,-4.6447,-4.652,-4.6471,-4.6783,-4.6683,-4.6699,-4.6708,-4.6801,-4.6835,-4.6864,-4.6472,-4.6471,-4.6469,0,0,-4.5959,-4.5992,-4.6117,-4.6157,-4.6214,-4.6216,-4.6246,-4.6292,-4.6303,-4.6441,-4.6388,-4.6473,-4.6624,-4.6667,-4.6709,-4.6947,-4.6903,-4.6974,-4.7103,-4.72,-4.7228,-4.7252,-4.7339,-4.737,-4.6993,-4.6993,-4.6993,0,-4.6068,-4.621,-4.6187,-4.6298,-4.6346,-4.6282,-4.6409,-4.6449,-4.6531,-4.6566,-4.6509,-4.6697,-4.6731,-4.6906,-4.6964,-4.6999,-4.7034,-4.6968,-4.7226,-4.725,-4.7273,-4.7355,-4.7387,-4.7002,-4.7001,-4.7,-4.6999,0,-4.6343,-4.6443,-4.6537,-4.6617,-4.6675,-4.6794,-4.679,-4.6852,-4.6829,-4.6837,-4.698,-4.7019,-4.7108,-4.7147,-4.7126,-4.7319,-4.7287,-4.7228,-4.7128,-4.7315,-4.7392,-4.7423,-4.7014,-4.7011,-4.7008,-4.7006,0,0,-4.664,-4.6705,-4.674,-4.6776,-4.6835,-4.6912,-4.7028,-4.7114,-4.7169,-4.7227,-4.7325,-4.7454,-4.74,-4.7448,-4.7431,-4.7516,-4.7703,-4.7447,-4.7448,-4.7494,-4.792,-4.7965,-4.8002,-4.7673,-4.7679,-4.7684,-4.7916,0,-4.6864,-4.7065,-4.7047,-4.7238,-4.7331,-4.7271,-4.7372,-4.742,-4.7431,-4.7512,-4.7523,-4.7616,-4.7537,-4.7566,-4.7647,-4.7663,-4.7789,-4.7646,-4.7766,-4.777,-4.7755,-4.8042,-4.8089,-4.8306,-4.7946,-4.7951,-4.7954,0,-4.7152,-4.722,-4.742,-4.7466,-4.7504,-4.7595,-4.7673,-4.775,-4.7804,-4.7805,-4.7859,-4.7828,-4.7946,-4.7841,-4.8005,-4.7908,-4.7956,-4.7972,-4.798,-4.7992,-4.7875,-4.8063,-4.8375,-4.8409,-4.8001,-4.7997,-4.7994,0,-4.735,-4.7492,-4.763,-4.7663,-4.7719,-4.7785,-4.7811,-4.7858,-4.7911,-4.798,-4.8014,-4.8096,-4.8141,-4.8205,-4.8198,-4.8122,-4.8365,-4.8259,-4.8371,-4.8372,-4.8426,-4.8423,-4.8752,-4.8455,-4.8454,-4.8453,-4.8453,0,-4.7603,-4.7728,-4.772,-4.7806,-4.7945,-4.7924,-4.8062,-4.8081,-4.8123,-4.8212,-4.8165,-4.825,-4.8234,-4.8319,-4.8313,-4.845,-4.8471,-4.8476,-4.8474,-4.8482,-4.8481,-4.8514,-4.8499,-4.8462,-4.846,-4.8458,-4.8457,0,-4.7849,-4.7848,-4.7995,-4.8036,-4.8049,-4.815,-4.8186,-4.8267,-4.8273,-4.8386,-4.8412,-4.8423,-4.852,-4.8518,-4.8629,-4.8625,-4.8794,-4.8773,-4.8776,-4.8773,-4.8885,-4.8876,-4.9248,-4.9297,-4.8966,-4.8969,-4.8972,0,-4.8011,-4.8106,-4.8157,-4.8213,-4.8243,-4.8334,-4.8388,-4.8371,-4.8429,-4.8497,-4.8571,-4.8663,-4.8737,-4.8896,-4.8914,-4.8999,-4.8981,-4.9106,-4.8994,-4.8999,-4.8985,-4.898,-4.899,-4.9129,-4.9132,-4.9135,-4.9138,0,-4.83,-4.8295,-4.8374,-4.8454,-4.8519,-4.8581,-4.8638,-4.8687,-4.8676,-4.8744,-4.8843,-4.89,-4.9013,-4.9107,-4.9188,-4.9216,-4.9177,-4.9173,-4.9203,-4.9213,-4.9212,-4.9216,-4.8838,-4.9165,-4.9162,-4.916,-4.9158,-4.9157,-4.8509,-4.8592,-4.864,-4.8731,-4.8771,-4.8826,-4.8905,-4.8921,-4.9002,-4.9093,-4.9078,-4.9189,-4.924,-4.9346,-4.9381,-4.9468,-4.9425,-4.9469,-4.948,-4.9492,-4.9505,-4.9196,-4.9483,-4.9482,-4.9482,-4.9481,-4.948,0,-4.8797,-4.8825,-4.8908,-4.8989,-4.9061,-4.9015,-4.9076,-4.9139,-4.9237,-4.9288,-4.9361,-4.9475,-4.9565,-4.9591,-4.9678,-4.9744,-4.9728,-4.9767,-4.9763,-4.9771,-4.9539,-4.9504,-4.9779,-4.9779,-4.9779,-4.9779,-4.9779,-4.9779,-4.8955,-4.9092,-4.9093,-4.925,-4.9277,-4.9385,-4.9424,-4.9475,-4.9515,-4.9644,-4.9719,-4.9734,-4.9776,-4.9866,-4.9947,-4.9953,-4.9988,-5.0036,-5.0034,-4.9817,-4.9787,-4.9758,-4.9726,-5.0043,-5.0043,-5.0259,-5.0261,-5.0262]},{"header":{"parameterUnit":"m.s-1","parameterCategory":1,"la1":30.2991,"la2":30.254,"lo1":-89.0895,"lo2":-89.0444,"dy":0.0017,"dx":0.0017,"nx":28,"ny":28,"refTime":"2024-12-23T09:00:00:Z","depth":0,"parameterNumber":3,"parameterNumberName":"V-component_of_WINDS"},"data":[0,0,0,0,0,0,0,0,0,0,0,0,0,0,0,0,0,0,0,0,0,0,0,0,0,0,0,0,0,0,0,0,0,0,0,0,0,0,0,0,0,0,0,0,0,0,0,0,0,0,0,0,0,0,0,0,0,0,-1.7975,-1.7975,0,-1.7931,-1.7931,-1.793,-1.7876,-1.7875,-1.7874,-1.7873,-1.7829,-1.7829,-1.7829,0,0,0,0,0,0,0,0,0,0,0,0,0,-1.8012,-1.8012,-1.7975,-1.7975,-1.7974,-1.7932,-1.7931,-1.793,-1.7876,-1.7875,-1.7874,-1.7873,-1.7829,-1.7829,-1.7829,0,0,0,0,0,0,0,0,0,0,0,0,0,-1.7985,-1.8011,-1.7976,-1.7942,-1.7938,-1.7932,-1.7931,-1.793,-1.7876,-1.7875,-1.7873,-1.7872,-1.783,-1.7829,-1.7829,-1.7852,0,0,-1.7827,-1.7827,0,0,0,0,0,0,0,0,-1.7987,-1.7984,-1.7947,-1.7944,-1.794,-1.7908,-1.7928,-1.7904,-1.7876,-1.79,-1.7873,-1.7871,-1.7856,-1.7854,-1.7848,-1.785,-1.7848,-1.7827,-1.7827,-1.7826,-1.7826,0,0,0,0,0,0,0,-1.7989,-1.7985,-1.7958,-1.7947,-1.7943,-1.7929,-1.7924,-1.7923,-1.7886,-1.7898,-1.7893,-1.7889,-1.7854,-1.7849,-1.7847,-1.7847,-1.7827,-1.7826,-1.7826,-1.7826,-1.7863,-1.7864,0,0,0,0,0,0,-1.7995,-1.7987,-1.7959,-1.7957,-1.7961,-1.7929,-1.7923,-1.7919,-1.7886,-1.7879,-1.789,-1.7887,-1.7851,-1.7848,-1.7845,-1.7869,-1.7826,-1.7826,-1.7826,-1.7862,-1.7864,-1.7865,0,0,0,0,0,0,-1.7996,-1.7993,-1.7961,-1.7971,-1.7966,-1.793,-1.7926,-1.7919,-1.7914,-1.788,-1.7873,-1.7891,-1.7849,-1.7846,-1.785,-1.7867,-1.7826,-1.7825,-1.786,-1.7862,-1.7864,-1.7917,0,0,0,0,0,0,-1.7998,-1.7994,-1.8003,-1.7971,-1.7965,-1.7967,-1.7927,-1.7919,-1.7913,-1.7908,-1.788,-1.7874,-1.7848,-1.7851,-1.7849,-1.7865,-1.7825,-1.7859,-1.7861,-1.7864,-1.7914,-1.7921,-1.7927,0,0,0,0,0,-1.7999,-1.802,-1.8003,-1.8,-1.7975,-1.7968,-1.7964,-1.7934,-1.7915,-1.7923,-1.7901,-1.7875,-1.7865,-1.7852,-1.785,-1.7865,-1.7858,-1.7861,-1.7863,-1.7911,-1.7919,-1.7927,0,0,0,0,0,0,-1.8055,-1.8015,-1.7996,-1.8008,-1.7992,-1.7959,-1.7968,-1.7944,-1.7934,-1.7929,-1.7893,-1.7887,-1.7895,-1.7881,-1.7867,-1.7885,-1.7857,-1.786,-1.7894,-1.7902,-1.7908,-1.7911,-1.7824,0,0,0,0,0,-1.8068,-1.8066,-1.8031,-1.8045,-1.8037,-1.8004,-1.8,-1.7978,-1.796,-1.7953,-1.7931,-1.7915,-1.7908,-1.7904,-1.7896,-1.7911,-1.7904,-1.7921,-1.7928,-1.7933,-1.7936,-1.7941,-1.7948,-1.7875,-1.7875,-1.7874,0,0,-1.8097,-1.8074,-1.8075,-1.8055,-1.804,-1.8038,-1.7999,-1.7999,-1.7996,-1.7953,-1.7955,-1.7938,-1.7918,-1.7927,-1.793,-1.7915,-1.7954,-1.7937,-1.7941,-1.7941,-1.7945,-1.7952,-1.7958,-1.7877,-1.7876,-1.7876,0,0,-1.8146,-1.813,-1.8138,-1.8123,-1.8101,-1.8078,-1.808,-1.8051,-1.8038,-1.8039,-1.8006,-1.8003,-1.7992,-1.7978,-1.797,-1.8013,-1.7988,-1.8011,-1.8045,-1.8051,-1.8056,-1.8061,-1.8076,-1.8082,-1.8014,-1.8014,-1.8014,0,-1.8184,-1.8179,-1.8146,-1.8147,-1.8139,-1.8098,-1.8106,-1.8094,-1.807,-1.8065,-1.8049,-1.8033,-1.8016,-1.8021,-1.8031,-1.8026,-1.8027,-1.8014,-1.8058,-1.8063,-1.8067,-1.808,-1.8086,-1.8017,-1.8017,-1.8016,-1.8016,0,-1.8226,-1.8224,-1.8233,-1.821,-1.8203,-1.8208,-1.8175,-1.8171,-1.815,-1.8129,-1.813,-1.8108,-1.8094,-1.8094,-1.8073,-1.8096,-1.8087,-1.8065,-1.8036,-1.8078,-1.8089,-1.8094,-1.8021,-1.802,-1.8019,-1.8019,0,0,-1.8311,-1.8268,-1.8272,-1.826,-1.8232,-1.8229,-1.8231,-1.8217,-1.8214,-1.8199,-1.82,-1.8191,-1.817,-1.816,-1.8137,-1.8142,-1.8176,-1.812,-1.8118,-1.813,-1.8198,-1.8215,-1.8221,-1.816,-1.8161,-1.8161,-1.82,0,-1.8355,-1.8356,-1.8326,-1.8336,-1.8332,-1.8293,-1.8295,-1.8277,-1.8258,-1.8251,-1.823,-1.8224,-1.8197,-1.8191,-1.8194,-1.8172,-1.819,-1.8168,-1.816,-1.816,-1.8166,-1.8228,-1.8245,-1.8283,-1.8204,-1.8205,-1.8206,0,-1.8406,-1.8393,-1.8402,-1.8371,-1.8369,-1.8371,-1.8355,-1.835,-1.8329,-1.8314,-1.8302,-1.8276,-1.8276,-1.8248,-1.8247,-1.8234,-1.8228,-1.8216,-1.8217,-1.8215,-1.8185,-1.8226,-1.8294,-1.8299,-1.8213,-1.8212,-1.8212,0,-1.8466,-1.845,-1.8453,-1.8444,-1.8409,-1.8411,-1.8397,-1.8374,-1.8367,-1.8353,-1.8348,-1.8334,-1.8327,-1.8316,-1.8287,-1.827,-1.8288,-1.8259,-1.8276,-1.8277,-1.8281,-1.8282,-1.8349,-1.8279,-1.8279,-1.8279,-1.8279,0,-1.8518,-1.8525,-1.8479,-1.8481,-1.8487,-1.8452,-1.8459,-1.8441,-1.8421,-1.8418,-1.8384,-1.8382,-1.8343,-1.8337,-1.8313,-1.8315,-1.8312,-1.83,-1.8294,-1.8303,-1.8304,-1.8299,-1.8295,-1.828,-1.828,-1.828,-1.8279,0,-1.8585,-1.8555,-1.8556,-1.8522,-1.8513,-1.8519,-1.849,-1.849,-1.8468,-1.8465,-1.8462,-1.8428,-1.8418,-1.8388,-1.8371,-1.8355,-1.8364,-1.8352,-1.8371,-1.8367,-1.8385,-1.8383,-1.845,-1.8457,-1.8384,-1.8385,-1.8385,0,-1.862,-1.8625,-1.8591,-1.8586,-1.8573,-1.8566,-1.8558,-1.8523,-1.8517,-1.8492,-1.8495,-1.8483,-1.8471,-1.8458,-1.8431,-1.8418,-1.8405,-1.8429,-1.8403,-1.8412,-1.8404,-1.8404,-1.8404,-1.8435,-1.8436,-1.8437,-1.8438,0,-1.8685,-1.8669,-1.8659,-1.8644,-1.8635,-1.8622,-1.8606,-1.8604,-1.8565,-1.8559,-1.8548,-1.8539,-1.8521,-1.851,-1.8492,-1.8476,-1.845,-1.8446,-1.8449,-1.8458,-1.8469,-1.8462,-1.8386,-1.8445,-1.8444,-1.8443,-1.8443,-1.8443,-1.8737,-1.8738,-1.8714,-1.8704,-1.8688,-1.8674,-1.8672,-1.8649,-1.864,-1.8622,-1.8602,-1.8594,-1.8571,-1.8544,-1.8531,-1.8523,-1.8509,-1.8514,-1.8515,-1.8517,-1.8521,-1.847,-1.852,-1.852,-1.852,-1.8519,-1.8519,0,-1.8799,-1.8781,-1.8772,-1.8751,-1.8742,-1.8718,-1.8699,-1.8693,-1.8686,-1.8667,-1.8656,-1.8644,-1.8632,-1.8603,-1.8588,-1.8588,-1.8576,-1.8585,-1.8585,-1.8581,-1.8534,-1.8533,-1.8595,-1.8595,-1.8595,-1.8595,-1.8595,-1.8595,-1.883,-1.8831,-1.8813,-1.8805,-1.8787,-1.8779,-1.877,-1.8756,-1.874,-1.8728,-1.8717,-1.8699,-1.8676,-1.8659,-1.8646,-1.8638,-1.8634,-1.8647,-1.8635,-1.8592,-1.8585,-1.8578,-1.8576,-1.8647,-1.8647,-1.8683,-1.8683,-1.8683]}]]